Погода в Веравале

Индия     20°54′20″N   70°22′48″E
темп.,
°C
ветер,
м/с
пор.,
м/с
влажн.,
%
обл.,
%
осадки,
мм/ч
давл.,
гПа
погр.,
м
8 марта, пн
пн823:30+21сз34900 0.0 101276
02:30+20сз23910 0.0 101151
05:30+20ссз33900 0.0 101045
08:30+24ссз35600 0.0 1013157
11:30+35сз33160 0.0 10141308
14:30+34зюз75290 0.0 10111196
17:30+29зюз67490 0.0 1010490
20:30+23з34810 0.0 101279
9 марта, вт
вт923:30+22зсз23860 0.0 101238
02:30+21ссз45810 0.0 101183
05:30+20ссз47740 0.0 1011106
08:30+24ссз36460 0.0 1014176
11:30+35ссз44170 0.0 10141284
14:30+37зюз55180 0.0 10112110
17:30+31зюз56360 0.0 1010589
20:30+22зсз34830 0.0 101265
10 марта, ср
ср1023:30+21сз34870 0.0 101268
02:30+20ссз45890 0.0 101197
05:30+19с47880 0.0 1010157
08:30+24с45551 0.0 1014209
11:30+34ссз33180 0.0 10141360
14:30+36зюз64190 0.0 10101637
17:30+30з67400 0.0 1009516
20:30+22сз35840 0.0 101197
11 марта, чт
чт1123:30+21сз47900 0.0 1012144
02:30+20ссз36940 0.0 1011123
05:30+20ссз48940 0.0 1010218
08:30+22с46807 0.0 1013317
11:30+32з22294 0.0 10141179
14:30+33зюз65290 0.0 10111143
17:30+28зюз67500 0.0 1010521
20:30+22зсз34830 0.0 101181
12 марта, пт
пт1223:30+21сз34850 0.0 101268
02:30+20сз46880 0.0 1010106
05:30+20ссз510900 0.0 1010195
08:30+23в33700 0.0 1014176
11:30+34сз13220 0.0 10151200
14:30+33юз65330 0.0 10121045
17:30+29зюз55480 0.0 1010540
20:30+22зсз33830 0.0 101239